Manistique, MI

4:53 AM EDT on September 23, 2017 (GMT -0400)
Schoolcraft County

Weather History for KISQ - March, 2013

Change the Weather History Date:

Wednesday, March 13, 2013

  Actual Average Record
Temperature  
Mean Temperature 22 °F -  
Max Temperature 28 °F 35 °F 55 °F (2012)
Min Temperature 17 °F 17 °F -13 °F (2014)
Degree Days  
Heating Degree Days 42    
Moisture  
Dew Point 14 °F    
Average Humidity 69    
Maximum Humidity 93    
Minimum Humidity 43    
Precipitation  
Precipitation 0.00 in - - ()
Sea Level Pressure  
Sea Level Pressure 30.04 in    
Wind  
Wind Speed 11 mph (NW)    
Max Wind Speed 25 mph    
Max Gust Speed 33 mph    
Visibility 8 miles    
Events Snow    
Averages and records for this station are not official NWS values.
T = Trace of Precipitation, MM = Missing Value Source: NWS Daily Summary

Daily Weather History Graph

Daily Weather History Graph

Search for Another Location

Airport or City:

Trip Planner

Search our weather history database for the weather conditions in past years. The results will help you decide how hot, cold, wet, or windy it might be!

Date:

Astronomy

Mar. 13, 2013 Rise Set
Actual Time 8:00 AM EDT 7:48 PM EDT
Civil Twilight 7:30 AM EDT 8:17 PM EDT
Nautical Twilight 6:56 AM EDT 8:52 PM EDT
Astronomical Twilight 6:21 AM EDT 9:28 PM EDT
Moon 8:31 AM EDT (3/13) 10:14 PM EDT (3/13)
Length of Visible Light 12h 46m
Length of Day
11h 47m
Waxing Crescent, 4% of the Moon is Illuminated
Mar 13
Waxing Crescent
Mar 19
First Quarter
Mar 27
Full
Apr 3
Last Quarter
Apr 10
New

Hourly Weather History & Observations

Time (EDT) Temp. Windchill Dew Point Humidity Pressure Visibility Wind Dir Wind Speed Gust Speed Precip Events Conditions
12:15 AM 19.4 °F 9.5 °F 15.8 °F 86% 29.84 in 2.5 mi WNW 8.1 mph - N/A Snow Light Snow
12:34 AM 19.4 °F 9.5 °F 15.8 °F 86% 29.84 in 3.0 mi NW 8.1 mph - N/A Snow Light Snow
12:55 AM 19.4 °F 10.4 °F 15.8 °F 86% 29.85 in 7.0 mi NW 6.9 mph - N/A Snow Light Snow
1:14 AM 19.4 °F 10.4 °F 15.8 °F 86% 29.85 in 7.0 mi NNW 6.9 mph - N/A Snow Light Snow
1:55 AM 19.4 °F 7.9 °F 14.0 °F 80% 29.86 in 10.0 mi NNW 10.4 mph - N/A Snow Light Snow
2:14 AM 19.4 °F 9.5 °F 14.0 °F 80% 29.86 in 10.0 mi NNW 8.1 mph - N/A Snow Light Snow
2:35 AM 19.4 °F 10.4 °F 14.0 °F 80% 29.87 in 4.0 mi NNW 6.9 mph - N/A Snow Light Snow
2:55 AM 19.4 °F 10.4 °F 14.0 °F 80% 29.87 in 10.0 mi NNW 6.9 mph - N/A Snow Light Snow
3:14 AM 19.4 °F 8.6 °F 14.0 °F 80% 29.88 in 7.0 mi NW 9.2 mph - N/A Snow Light Snow
3:35 AM 19.4 °F 9.5 °F 14.0 °F 80% 29.88 in 10.0 mi NW 8.1 mph - N/A Snow Light Snow
3:54 AM 17.6 °F 7.3 °F 14.0 °F 86% 29.89 in 2.0 mi NW 8.1 mph - N/A Snow Light Snow
4:15 AM 17.6 °F 8.2 °F 15.8 °F 93% 29.89 in 3.0 mi NW 6.9 mph - N/A Snow Light Snow
4:54 AM 19.4 °F 10.4 °F 15.8 °F 86% 29.90 in 10.0 mi NW 6.9 mph - N/A Snow Light Snow
5:15 AM 19.4 °F 11.5 °F 15.8 °F 86% 29.90 in 3.0 mi NW 5.8 mph - N/A Snow Light Snow
5:34 AM 19.4 °F 10.4 °F 15.8 °F 86% 29.91 in 2.5 mi NNW 6.9 mph - N/A Snow Light Snow
5:54 AM 19.4 °F 9.5 °F 15.8 °F 86% 29.91 in 5.0 mi NNW 8.1 mph - N/A Snow Light Snow
6:15 AM 19.4 °F 10.4 °F 15.8 °F 86% 29.92 in 4.0 mi NNW 6.9 mph - N/A Snow Light Snow
6:34 AM 19.4 °F 9.5 °F 15.8 °F 86% 29.93 in 4.0 mi NW 8.1 mph - N/A Snow Light Snow
6:55 AM 17.6 °F 6.4 °F 14.0 °F 86% 29.93 in 10.0 mi NNW 9.2 mph - N/A Snow Light Snow
7:14 AM 19.4 °F 8.6 °F 14.0 °F 80% 29.94 in 10.0 mi NW 9.2 mph - N/A   Mostly Cloudy
7:34 AM 19.4 °F 10.4 °F 14.0 °F 80% 29.94 in 10.0 mi NW 6.9 mph - N/A Snow Light Snow
7:55 AM 19.4 °F 10.4 °F 14.0 °F 80% 29.95 in 10.0 mi NW 6.9 mph - N/A Snow Light Snow
8:14 AM 17.6 °F 8.2 °F 12.2 °F 79% 29.96 in 10.0 mi NNW 6.9 mph - N/A Snow Light Snow
8:35 AM 17.6 °F 7.3 °F 12.2 °F 79% 29.97 in 10.0 mi NW 8.1 mph - N/A   Mostly Cloudy
8:55 AM 19.4 °F 6.6 °F 12.2 °F 74% 29.97 in 10.0 mi NW 12.7 mph - N/A   Mostly Cloudy
9:14 AM 21.2 °F 9.5 °F 12.2 °F 68% 29.98 in 10.0 mi NNW 11.5 mph 18.4 mph N/A   Overcast
9:35 AM 21.2 °F 7.3 °F 12.2 °F 68% 29.99 in 10.0 mi NW 16.1 mph 24.2 mph N/A   Mostly Cloudy
9:54 AM 21.2 °F 8.3 °F 12.2 °F 68% 29.99 in 10.0 mi NNW 13.8 mph 23.0 mph N/A   Scattered Clouds
10:14 AM 21.2 °F 8.3 °F 12.2 °F 68% 30.00 in 10.0 mi NNW 13.8 mph - N/A   Scattered Clouds
10:35 AM 23.0 °F 9.6 °F 12.2 °F 63% 30.01 in 10.0 mi NNW 16.1 mph 25.3 mph N/A   Mostly Cloudy
10:54 AM 23.0 °F 8.3 °F 12.2 °F 63% 30.02 in 7.0 mi NNW 19.6 mph 26.5 mph N/A   Mostly Cloudy
11:15 AM 23.0 °F 8.3 °F 12.2 °F 63% 30.03 in 4.0 mi North 19.6 mph 26.5 mph N/A   Haze
11:34 AM 24.8 °F 10.0 °F 12.2 °F 59% 30.04 in 7.0 mi NW 21.9 mph 29.9 mph N/A   Scattered Clouds
11:54 AM 24.8 °F 10.3 °F 12.2 °F 59% 30.04 in 7.0 mi NNW 20.7 mph 27.6 mph N/A   Clear
12:15 PM 24.8 °F 11.1 °F 12.2 °F 59% 30.06 in 5.0 mi NNW 18.4 mph 28.8 mph N/A   Haze
12:34 PM 26.6 °F 11.4 °F 12.2 °F 55% 30.06 in 7.0 mi NW 25.3 mph 32.2 mph N/A   Scattered Clouds
12:55 PM 26.6 °F 12.7 °F 10.4 °F 51% 30.07 in 10.0 mi NW 20.7 mph 28.8 mph N/A   Scattered Clouds
1:15 PM 26.6 °F 13.8 °F 10.4 °F 51% 30.08 in 7.0 mi NNW 17.3 mph 29.9 mph N/A   Clear
1:34 PM 26.6 °F 13.1 °F 10.4 °F 51% 30.08 in 10.0 mi NNW 19.6 mph 29.9 mph N/A   Clear
1:55 PM 26.6 °F 12.7 °F 10.4 °F 51% 30.09 in 10.0 mi NNW 20.7 mph 33.4 mph N/A   Clear
2:14 PM 26.6 °F 12.4 °F 8.6 °F 47% 30.09 in 10.0 mi NNW 21.9 mph 29.9 mph N/A   Clear
2:34 PM 26.6 °F 13.4 °F 10.4 °F 51% 30.09 in 10.0 mi NW 18.4 mph 27.6 mph N/A   Clear
2:55 PM 26.6 °F 13.8 °F 8.6 °F 47% 30.09 in 10.0 mi NNW 17.3 mph 32.2 mph N/A   Clear
3:14 PM 28.4 °F 17.0 °F 10.4 °F 47% 30.10 in 10.0 mi NW 15.0 mph 26.5 mph N/A   Clear
3:35 PM 26.6 °F 12.7 °F 10.4 °F 51% 30.10 in 10.0 mi NNW 20.7 mph 29.9 mph N/A   Clear
3:54 PM 28.4 °F 15.8 °F 8.6 °F 43% 30.10 in 10.0 mi NNW 18.4 mph 24.2 mph N/A   Clear
4:14 PM 28.4 °F 14.7 °F 8.6 °F 43% 30.10 in 10.0 mi NW 21.9 mph 27.6 mph N/A   Clear
4:35 PM 28.4 °F 15.4 °F 10.4 °F 47% 30.11 in 10.0 mi WNW 19.6 mph 28.8 mph N/A   Clear
4:54 PM 26.6 °F 13.4 °F 12.2 °F 55% 30.11 in 10.0 mi WNW 18.4 mph 28.8 mph N/A   Clear
5:15 PM 28.4 °F 15.1 °F 10.4 °F 47% 30.12 in 10.0 mi NW 20.7 mph 26.5 mph N/A   Clear
5:35 PM 28.4 °F 15.1 °F 10.4 °F 47% 30.13 in 10.0 mi NW 20.7 mph 28.8 mph N/A   Clear
5:54 PM 26.6 °F 13.4 °F 12.2 °F 55% 30.13 in 10.0 mi NNW 18.4 mph 28.8 mph N/A   Clear
6:15 PM 26.6 °F 13.1 °F 10.4 °F 51% 30.14 in 10.0 mi NW 19.6 mph 25.3 mph N/A   Clear
6:34 PM 26.6 °F 13.8 °F 12.2 °F 55% 30.15 in 10.0 mi NW 17.3 mph 25.3 mph N/A   Clear
6:55 PM 24.8 °F 11.1 °F 12.2 °F 59% 30.16 in 10.0 mi NW 18.4 mph 28.8 mph N/A   Clear
7:14 PM 24.8 °F 11.9 °F 15.8 °F 69% 30.17 in 10.0 mi NW 16.1 mph 33.4 mph N/A Snow Light Snow
7:35 PM 24.8 °F 12.4 °F 15.8 °F 69% 30.17 in 10.0 mi NW 15.0 mph 20.7 mph N/A Snow Light Snow
7:55 PM 24.8 °F 11.1 °F 17.6 °F 74% 30.18 in 7.0 mi WNW 18.4 mph 24.2 mph N/A Snow Light Snow
8:14 PM 24.8 °F 14.6 °F 17.6 °F 74% 30.19 in 10.0 mi NW 10.4 mph 23.0 mph N/A Snow Light Snow
8:35 PM 24.8 °F 14.6 °F 15.8 °F 69% 30.19 in 10.0 mi NW 10.4 mph - N/A Snow Light Snow
8:54 PM 24.8 °F 14.0 °F 17.6 °F 74% 30.18 in 10.0 mi WNW 11.5 mph - N/A Snow Light Snow
9:14 PM 24.8 °F 15.3 °F 17.6 °F 74% 30.18 in 10.0 mi WNW 9.2 mph - N/A Snow Light Snow
9:35 PM 24.8 °F 16.1 °F 17.6 °F 74% 30.19 in 10.0 mi WNW 8.1 mph - N/A Snow Light Snow
9:54 PM 24.8 °F 15.3 °F 17.6 °F 74% 30.19 in 10.0 mi West 9.2 mph - N/A Snow Light Snow
10:15 PM 23.0 °F 13.1 °F 17.6 °F 80% 30.19 in 10.0 mi WNW 9.2 mph - N/A Snow Light Snow
10:34 PM 23.0 °F 13.1 °F 17.6 °F 80% 30.18 in 10.0 mi WNW 9.2 mph - N/A Snow Light Snow
10:54 PM 21.2 °F 11.7 °F 17.6 °F 86% 30.18 in 10.0 mi WNW 8.1 mph - N/A Snow Light Snow
11:15 PM 21.2 °F 10.9 °F 15.8 °F 80% 30.18 in 10.0 mi WNW 9.2 mph - N/A Snow Light Snow
11:34 PM 21.2 °F 11.7 °F 15.8 °F 80% 30.18 in 10.0 mi West 8.1 mph - N/A   Overcast
11:55 PM 21.2 °F 11.7 °F 15.8 °F 80% 30.18 in 10.0 mi West 8.1 mph - N/A   Overcast